User: anonymous   Login
Location: Plymouth
(43.7570°N, 71.6890°W)
Time: 16:51:17
(UTC-04:00)
Language:

COSMOS 2406 - Orbit

View from above orbital plane
View from above orbital plane
View from above satellite
View from above satellite

Ground track
Ground track

The orbit data is extracted from the following two-line orbital elements,

1 28352U 04021A   17084.91680399 +.00000281 +00000-0 +18023-3 0  9990
2 28352 071.0043 298.5658 0016724 238.2953 121.6538 14.11627528659050
Epoch (UTC): 25 March 2017 22:00:11
Eccentricity: 0.0016724
inclination: 71.0043°
perigee height: 842 km
apogee height: 866 km
right ascension of ascending node: 298.5658°
argument of perigee: 238.2953°
revolutions per day: 14.11627528
mean anomaly at epoch: 121.6538°
orbit number at epoch: 65905

The dashed part of the orbit path shows where the satellite is in the earth's shadow,  

DLR